Regional Weather Roundup
Issued by NWS

Home | Current Version | Previous Version | Text Only | Print | Product List | Glossary Off
Versions: 1 2 3 4 5 6 7 8 9 10 11 12 13 14 15 16 17 18 19 20 21 22 23 24 25 26 27 28 29 30 31 32 33 34 35 36 37 38 39 40 41 42 43 44 45 46 47 48 49 50

000
ASUS44 KOUN 251210
RWROK

WEATHER ROUNDUP FOR OKLAHOMA
NATIONAL WEATHER SERVICE NORMAN OK
700 AM CDT WED MAY 25 2016

NOTE: "FAIR" INDICATES FEW OR NO CLOUDS BELOW 12,000 FEET WITH NO
      SIGNIFICANT WEATHER AND/OR OBSTRUCTIONS TO VISIBILITY.

OKZ001>007-009>012-014-015-017-251300-
NORTHWEST OKLAHOMA AND THE PANHANDLE

CITY           SKY/WX    TMP DP  RH WIND       PRES   REMARKS
GAGE           CLEAR     69  66  90 S16       29.82R FOG
6HR MIN TEMP:  68; 6HR MAX TEMP:  75;

GUYMON         CLEAR     55  38  52 W12       29.84R
ENID/WOODRING  MOCLDY    72  70  94 SE12      29.83S
$$

OKZ016-021>023-033>039-044-045-251300-
SOUTHWEST OKLAHOMA

CITY           SKY/WX    TMP DP  RH WIND       PRES   REMARKS
LAWTON/REGL    CLOUDY    76  72  87 S13       29.90R
6HR MIN TEMP:  75; 6HR MAX TEMP:  77;

LAWTON/FT SILL MOCLDY    75  75  98 S14       29.89R
FREDERICK      CLOUDY    74  73  97 SE9       29.86R FOG
CLINTON        CLOUDY    73  70  90 S15       29.87R FOG
HOBART         MOCLDY    73  71  93 S21       29.87R FOG
ALTUS AFB      CLEAR     72  70  94 SE9       29.87R FOG
$$

OKZ018>020-024>031-251300-
CENTRAL OKLAHOMA

CITY           SKY/WX    TMP DP  RH WIND       PRES   REMARKS
OKLAHOMA CITY  PTCLDY    74  72  93 S21G28    29.87S
6HR MIN TEMP:  74; 6HR MAX TEMP:  76;

OKC/WILEY POST CLEAR     76  71  85 S21G29    29.86R
OKC/TINKER AFB CLEAR     74  71  89 S21G29    29.86F
STILLWATER     CLOUDY    72  69  90 E8        29.88R
GUTHRIE        PTCLDY    75  71  87 S14       29.85R
$$

OKZ008-013-054>072-251300-
NORTHEAST OKLAHOMA

CITY           SKY/WX    TMP DP  RH WIND       PRES   REMARKS
TULSA          CLOUDY    68  63  84 E17G25    29.94R THUNDER
6HR MIN TEMP:  66; 6HR MAX TEMP:  72; 6HR PCP:  0.01;

TULSA/JONES    CLOUDY    68  65  90 E6        29.94R
PONCA CITY     CLOUDY    68  65  90 SE20      29.88R
BARTLESVILLE   RAIN      63  62  97 E9G20     29.95F FOG
MUSKOGEE       CLOUDY    68  65  90 SE9       29.95F
$$

OKZ032-040>043-046>053-073>077-251300-
SOUTH CENTRAL/SOUTHEAST OKLAHOMA

CITY           SKY/WX    TMP DP  RH WIND       PRES   REMARKS
ARDMORE/DWNTWN CLOUDY    73  68  83 S8        29.95S
MCALESTER      PTCLDY    73  69  87 S8G18     29.95S
$$





USA.gov is the U.S. government's official web portal to all federal, state and local government web resources and services.